Hickam AFB, HI

5:36 PM HST on January 23, 2017 (GMT -1000)
Honolulu International

Weather History for PHNL - November, 2011

Change the Weather History Date:

Thursday, November 24, 2011

  Actual Average Record
Temperature  
Mean Temperature 78 °F 77 °F  
Max Temperature 83 °F 83 °F 94 °F (2005)
Min Temperature 72 °F 71 °F 59 °F (1958)
Degree Days  
Heating Degree Days 0 0  
Month to date heating degree days 0 0  
Since 1 July heating degree days 0 0  
Cooling Degree Days 13 12  
Month to date cooling degree days 351 311  
Year to date cooling degree days 4521 4257  
Growing Degree Days 28 (Base 50)    
Moisture  
Dew Point 63 °F    
Average Humidity 63    
Maximum Humidity 74    
Minimum Humidity 51    
Precipitation  
Precipitation 0.00 in 0.08 in 1.36 in (1975)
Month to date precipitation 0.87 1.95  
Year to date precipitation 14.52 13.39  
Snow  
Snow 0.00 in - - ()
Month to date snowfall 0.0  
Since 1 July snowfall 0.0  
Since 1 September snowfall 0.0  
Snow Depth 0.00 in    
Sea Level Pressure  
Sea Level Pressure 30.07 in    
Wind  
Wind Speed 10 mph (ENE)    
Max Wind Speed 20 mph    
Max Gust Speed 24 mph    
Visibility 10 miles    
Events      
T = Trace of Precipitation, MM = Missing Value Source: NWS Daily Summary

Daily Weather History Graph

Daily Weather History Graph

Search for Another Location

Airport or City:

Trip Planner

Search our weather history database for the weather conditions in past years. The results will help you decide how hot, cold, wet, or windy it might be!

Date:

Astronomy

Nov. 24, 2011 Rise Set
Actual Time 6:48 AM HST 5:48 PM HST
Civil Twilight 6:24 AM HST 6:12 PM HST
Nautical Twilight 5:57 AM HST 6:39 PM HST
Astronomical Twilight 5:30 AM HST 7:06 PM HST
Moon 6:16 AM HST 5:34 PM HST
Length of Visible Light 11h 47m
Length of Day
11h 00m
Waning Crescent, 0% of the Moon is Illuminated
Nov 24
Waning Crescent
Nov 24
New
Dec 1
First Quarter
Dec 10
Full
Dec 17
Last Quarter

Hourly Weather History & Observations

Time (HST) Temp. Heat Index Dew Point Humidity Pressure Visibility Wind Dir Wind Speed Gust Speed Precip Events Conditions
12:53 AM 75.0 °F - 60.1 °F 60% 30.10 in 10.0 mi ENE 12.7 mph - N/A   Partly Cloudy
1:53 AM 73.9 °F - 61.0 °F 64% 30.09 in 10.0 mi ENE 9.2 mph - N/A   Partly Cloudy
2:53 AM 73.9 °F - 61.0 °F 64% 30.06 in 10.0 mi NE 10.4 mph - N/A   Partly Cloudy
3:53 AM 73.9 °F - 62.1 °F 66% 30.06 in 10.0 mi ENE 10.4 mph - N/A   Partly Cloudy
4:53 AM 73.0 °F - 61.0 °F 66% 30.08 in 10.0 mi NE 10.4 mph - N/A   Partly Cloudy
5:53 AM 73.0 °F - 61.0 °F 66% 30.08 in 10.0 mi NE 6.9 mph - N/A   Partly Cloudy
6:53 AM 73.0 °F - 62.1 °F 68% 30.09 in 10.0 mi North 4.6 mph - N/A   Scattered Clouds
7:53 AM 75.9 °F - 62.1 °F 62% 30.10 in 10.0 mi ENE 10.4 mph 16.1 mph N/A   Scattered Clouds
8:53 AM 78.1 °F - 63.0 °F 60% 30.11 in 10.0 mi NE 10.4 mph 18.4 mph N/A   Scattered Clouds
9:53 AM 80.1 °F 81.7 °F 64.0 °F 58% 30.11 in 10.0 mi East 15.0 mph 23.0 mph N/A   Scattered Clouds
10:53 AM 81.0 °F 82.5 °F 64.0 °F 56% 30.09 in 10.0 mi ENE 15.0 mph 21.9 mph N/A   Scattered Clouds
11:53 AM 82.9 °F 83.7 °F 62.1 °F 49% 30.07 in 10.0 mi NE 13.8 mph 21.9 mph N/A   Scattered Clouds
12:53 PM 82.0 °F 83.0 °F 62.1 °F 51% 30.06 in 10.0 mi ENE 15.0 mph 20.7 mph N/A   Scattered Clouds
1:53 PM 82.0 °F 83.0 °F 62.1 °F 51% 30.03 in 10.0 mi ENE 17.3 mph 21.9 mph N/A   Scattered Clouds
2:53 PM 82.0 °F 83.0 °F 62.1 °F 51% 30.02 in 10.0 mi ENE 15.0 mph - N/A   Scattered Clouds
3:53 PM 81.0 °F 81.9 °F 62.1 °F 52% 30.02 in 10.0 mi ENE 15.0 mph 20.7 mph N/A   Partly Cloudy
4:53 PM 80.1 °F 81.7 °F 64.0 °F 58% 30.03 in 10.0 mi NE 13.8 mph - N/A   Partly Cloudy
5:53 PM 77.0 °F - 64.9 °F 66% 30.04 in 10.0 mi ENE 11.5 mph - N/A   Partly Cloudy
6:53 PM 75.9 °F - 64.0 °F 67% 30.06 in 10.0 mi ENE 10.4 mph - N/A   Partly Cloudy
7:53 PM 75.9 °F - 64.9 °F 69% 30.08 in 10.0 mi ENE 11.5 mph - N/A   Partly Cloudy
8:53 PM 75.0 °F - 66.0 °F 73% 30.09 in 10.0 mi East 6.9 mph - N/A   Partly Cloudy
9:53 PM 75.0 °F - 64.9 °F 71% 30.09 in 10.0 mi Calm Calm - N/A   Scattered Clouds
10:53 PM 73.9 °F - 64.9 °F 73% 30.10 in 10.0 mi NNW 4.6 mph - N/A   Partly Cloudy
11:53 PM 73.0 °F - 66.0 °F 79% 30.10 in 10.0 mi Calm Calm - N/A   Scattered Clouds